RYR8XK LIPE-LIBC

Flight info

Callsign RYR8XK
Flight time 1h 13m
Altitude 19000
Route PELEG M726 GAVRA/N0439F370 DCT NIKMA DCT IPGOR DCT ALAXI DCT TEA DCT POLIT DCT EVINO/N0339F190 M620 CDC
Aircraft B738/M-SDE2E3FGHIRWXY/LB1

Departure

Time 2026-05-06 17:52
Airport Bologna Guglielmo Marconi Airport (LIPE)

Arrival

Time 2026-05-06 19:05
Airport Crotone Sant'Anna Pythagoras Airport (LIBC)
Time Latitude Longitude Altitude Speed Heading
2026-05-06 17:28 44.52989 11.29148 129 ft 0 kts 116°
2026-05-06 17:43 44.52990 11.29147 125 ft 2 kts 117°
2026-05-06 17:43 44.52999 11.29115 128 ft 4 kts 103°
2026-05-06 17:44 44.53001 11.29079 127 ft 4 kts 69°
2026-05-06 17:44 44.52993 11.29061 127 ft 4 kts 32°
2026-05-06 17:44 44.52989 11.29058 124 ft 2 kts 26°
2026-05-06 17:46 44.53007 11.29070 125 ft 8 kts 26°
2026-05-06 17:47 44.53056 11.29104 129 ft 9 kts 26°
2026-05-06 17:47 44.53116 11.29146 126 ft 10 kts 26°
2026-05-06 17:47 44.53177 11.29188 128 ft 10 kts 26°
2026-05-06 17:47 44.53232 11.29178 127 ft 10 kts 300°
2026-05-06 17:48 44.53264 11.29093 127 ft 11 kts 298°
2026-05-06 17:48 44.53306 11.28979 129 ft 16 kts 297°
2026-05-06 17:48 44.53361 11.28824 129 ft 19 kts 297°
2026-05-06 17:48 44.53420 11.28660 128 ft 19 kts 296°
2026-05-06 17:49 44.53478 11.28502 128 ft 18 kts 297°
2026-05-06 17:49 44.53533 11.28348 128 ft 17 kts 297°
2026-05-06 17:49 44.53585 11.28202 125 ft 17 kts 297°
2026-05-06 17:49 44.53637 11.28058 129 ft 16 kts 297°
2026-05-06 17:50 44.53686 11.27922 127 ft 15 kts 297°
2026-05-06 17:50 44.53734 11.27788 127 ft 17 kts 296°
2026-05-06 17:50 44.53779 11.27662 128 ft 12 kts 297°
2026-05-06 17:50 44.53831 11.27580 129 ft 11 kts 330°
2026-05-06 17:51 44.53907 11.27583 125 ft 12 kts 24°
2026-05-06 17:51 44.53963 11.27654 127 ft 9 kts 48°
2026-05-06 17:51 44.53951 11.27737 125 ft 9 kts 117°
2026-05-06 17:51 44.53921 11.27819 128 ft 12 kts 117°
2026-05-06 17:52 44.53783 11.28203 127 ft 87 kts 117°
2026-05-06 17:52 44.53391 11.29304 148 ft 161 kts 116°
2026-05-06 17:52 44.52869 11.30788 858 ft 176 kts 115°
2026-05-06 17:52 44.52600 11.32493 1823 ft 191 kts 85°
2026-05-06 17:53 44.53189 11.34289 2321 ft 223 kts 46°
2026-05-06 17:53 44.54612 11.35366 2527 ft 248 kts
2026-05-06 17:53 44.56300 11.35803 3330 ft 244 kts 13°
2026-05-06 17:53 44.57894 11.36649 4242 ft 246 kts 21°
2026-05-06 17:54 44.59447 11.37725 5035 ft 252 kts 25°
2026-05-06 17:54 44.60990 11.38907 5911 ft 253 kts 26°
2026-05-06 17:54 44.62528 11.40132 6746 ft 255 kts 27°
2026-05-06 17:54 44.64061 11.41369 7591 ft 255 kts 28°
2026-05-06 17:55 44.65548 11.42803 8150 ft 271 kts 49°
2026-05-06 17:55 44.66382 11.45193 8691 ft 278 kts 84°
2026-05-06 17:55 44.66250 11.47855 9469 ft 273 kts 114°
2026-05-06 17:55 44.65270 11.50041 10269 ft 262 kts 143°
2026-05-06 17:56 44.63714 11.51232 11027 ft 253 kts 172°
2026-05-06 17:56 44.61984 11.51256 11794 ft 249 kts 195°
2026-05-06 17:56 44.60269 11.50698 12294 ft 265 kts 184°
2026-05-06 17:56 44.58363 11.51242 12501 ft 296 kts 164°
2026-05-06 17:57 44.56340 11.52261 12686 ft 321 kts 164°
2026-05-06 17:57 44.54163 11.53336 12927 ft 342 kts 164°
2026-05-06 17:57 44.51879 11.54414 13499 ft 350 kts 165°
2026-05-06 17:57 44.49547 11.55468 14211 ft 353 kts 166°
2026-05-06 17:58 44.47197 11.56495 14944 ft 355 kts 167°
2026-05-06 17:58 44.44815 11.57509 15643 ft 359 kts 167°
2026-05-06 17:58 44.42443 11.58500 16313 ft 362 kts 167°
2026-05-06 17:58 44.40013 11.59505 16952 ft 367 kts 167°
2026-05-06 17:59 44.37539 11.60521 17470 ft 375 kts 168°
2026-05-06 17:59 44.35018 11.61554 18118 ft 378 kts 168°
2026-05-06 17:59 44.32482 11.62593 18747 ft 381 kts 168°
2026-05-06 17:59 44.29935 11.63634 19385 ft 382 kts 168°
2026-05-06 18:00 44.27378 11.64679 20001 ft 384 kts 168°
2026-05-06 18:00 44.24804 11.65729 20586 ft 386 kts 168°
2026-05-06 18:00 44.22233 11.66777 21157 ft 389 kts 168°
2026-05-06 18:00 44.19628 11.67838 21715 ft 392 kts 169°
2026-05-06 18:01 44.17013 11.68903 22302 ft 393 kts 169°
2026-05-06 18:01 44.14379 11.69974 22858 ft 396 kts 169°
2026-05-06 18:01 44.11723 11.71052 23373 ft 399 kts 169°
2026-05-06 18:01 44.09054 11.72133 23838 ft 401 kts 169°
2026-05-06 18:02 44.06376 11.73220 24333 ft 401 kts 169°
2026-05-06 18:02 44.03691 11.74309 24812 ft 402 kts 170°
2026-05-06 18:02 44.00996 11.75400 25255 ft 404 kts 170°
2026-05-06 18:02 43.98286 11.76495 25597 ft 407 kts 170°
2026-05-06 18:03 43.95556 11.77594 25948 ft 410 kts 170°
2026-05-06 18:03 43.92803 11.78671 26339 ft 412 kts 170°
2026-05-06 18:03 43.90044 11.79797 26795 ft 414 kts 170°
2026-05-06 18:03 43.87257 11.80725 27163 ft 411 kts 176°
2026-05-06 18:04 43.84434 11.81264 27517 ft 410 kts 179°
2026-05-06 18:04 43.81589 11.81738 27938 ft 412 kts 179°
2026-05-06 18:04 43.78732 11.82263 28228 ft 418 kts 177°
2026-05-06 18:04 43.75868 11.83217 28502 ft 430 kts 167°
2026-05-06 18:05 43.73054 11.84645 28892 ft 433 kts 166°
2026-05-06 18:05 43.70227 11.86116 29263 ft 434 kts 166°
2026-05-06 18:05 43.67395 11.87586 29591 ft 436 kts 166°
2026-05-06 18:05 43.64544 11.89053 29900 ft 439 kts 166°
2026-05-06 18:06 43.61680 11.90514 30236 ft 439 kts 166°
2026-05-06 18:06 43.58853 11.91948 30638 ft 438 kts 167°
2026-05-06 18:06 43.55995 11.93392 31002 ft 437 kts 167°
2026-05-06 18:06 43.53149 11.94827 31432 ft 435 kts 167°
2026-05-06 18:07 43.50317 11.96251 31890 ft 432 kts 167°
2026-05-06 18:07 43.47500 11.97667 32290 ft 430 kts 167°
2026-05-06 18:07 43.44688 11.99076 32606 ft 430 kts 167°
2026-05-06 18:07 43.41923 12.00461 33011 ft 427 kts 167°
2026-05-06 18:08 43.39140 12.01855 33449 ft 425 kts 167°
2026-05-06 18:08 43.36330 12.03261 33856 ft 423 kts 167°
2026-05-06 18:08 43.33606 12.04621 34127 ft 423 kts 167°
2026-05-06 18:08 43.30826 12.06006 34156 ft 428 kts 167°
2026-05-06 18:09 43.28024 12.07400 34388 ft 427 kts 167°
2026-05-06 18:09 43.25246 12.08787 34716 ft 426 kts 167°
2026-05-06 18:09 43.22450 12.10179 34885 ft 428 kts 167°
2026-05-06 18:09 43.19647 12.11571 35067 ft 430 kts 167°
2026-05-06 18:10 43.16844 12.12965 35348 ft 428 kts 167°
2026-05-06 18:10 43.14076 12.14342 35684 ft 425 kts 167°
2026-05-06 18:10 43.11297 12.15720 35853 ft 427 kts 167°
2026-05-06 18:10 43.08498 12.17105 36001 ft 429 kts 167°
2026-05-06 18:11 43.05684 12.18496 36186 ft 430 kts 167°
2026-05-06 18:11 43.02878 12.19880 36430 ft 428 kts 167°
2026-05-06 18:11 43.00074 12.21260 36671 ft 428 kts 167°
2026-05-06 18:11 42.97264 12.22641 36828 ft 429 kts 167°
2026-05-06 18:12 42.94474 12.24014 36956 ft 425 kts 167°
2026-05-06 18:12 42.91692 12.25379 36960 ft 425 kts 167°
2026-05-06 18:12 42.86285 12.28905 36972 ft 442 kts 153°
2026-05-06 18:13 42.81236 12.33769 36979 ft 446 kts 152°
2026-05-06 18:13 42.76174 12.38698 36983 ft 448 kts 152°
2026-05-06 18:14 42.71086 12.43592 36976 ft 447 kts 152°
2026-05-06 18:14 42.65995 12.48444 36986 ft 446 kts 152°
2026-05-06 18:15 42.60913 12.53266 36996 ft 445 kts 152°
2026-05-06 18:15 42.55849 12.58063 37001 ft 443 kts 152°
2026-05-06 18:16 42.50795 12.62840 37003 ft 442 kts 152°
2026-05-06 18:16 42.45760 12.67589 37020 ft 441 kts 152°
2026-05-06 18:17 42.40737 12.72316 37027 ft 439 kts 153°
2026-05-06 18:17 42.35758 12.77005 37015 ft 438 kts 153°
2026-05-06 18:18 42.30741 12.81716 37025 ft 435 kts 153°
2026-05-06 18:18 42.25750 12.86376 37010 ft 437 kts 153°
2026-05-06 18:19 42.20773 12.91019 37023 ft 439 kts 153°
2026-05-06 18:19 42.15732 12.95716 37009 ft 442 kts 152°
2026-05-06 18:20 42.10653 13.00444 36997 ft 444 kts 153°
2026-05-06 18:20 42.05564 13.05166 37001 ft 445 kts 152°
2026-05-06 18:21 42.00466 13.09897 36999 ft 445 kts 153°
2026-05-06 18:21 41.95365 13.14619 37010 ft 445 kts 153°
2026-05-06 18:22 41.90270 13.19322 37018 ft 446 kts 153°
2026-05-06 18:22 41.85155 13.24035 37021 ft 446 kts 153°
2026-05-06 18:23 41.80046 13.28735 37008 ft 445 kts 153°
2026-05-06 18:23 41.74959 13.33406 37031 ft 443 kts 153°
2026-05-06 18:24 41.69897 13.38135 37026 ft 445 kts 151°
2026-05-06 18:24 41.64874 13.42988 37026 ft 445 kts 151°
2026-05-06 18:25 41.59853 13.47842 37003 ft 445 kts 151°
2026-05-06 18:25 41.54832 13.52668 37022 ft 444 kts 151°
2026-05-06 18:26 41.49830 13.57453 37024 ft 445 kts 151°
2026-05-06 18:26 41.44765 13.62286 37008 ft 445 kts 151°
2026-05-06 18:27 41.39731 13.67081 37029 ft 445 kts 151°
2026-05-06 18:27 41.34719 13.71846 37019 ft 445 kts 151°
2026-05-06 18:28 41.29665 13.76642 37020 ft 446 kts 151°
2026-05-06 18:28 41.24601 13.81436 37020 ft 448 kts 151°
2026-05-06 18:29 41.19520 13.86239 37001 ft 449 kts 151°
2026-05-06 18:29 41.14429 13.91042 37018 ft 450 kts 151°
2026-05-06 18:30 41.09324 13.95849 37019 ft 450 kts 151°
2026-05-06 18:30 41.04209 14.00656 37030 ft 451 kts 151°
2026-05-06 18:31 40.99083 14.05464 37026 ft 452 kts 151°
2026-05-06 18:31 40.93944 14.10274 37024 ft 453 kts 151°
2026-05-06 18:32 40.89663 14.14275 37014 ft 453 kts 150°
2026-05-06 18:32 40.84507 14.19084 37022 ft 454 kts 150°
2026-05-06 18:33 40.79352 14.23884 37009 ft 453 kts 150°
2026-05-06 18:33 40.74203 14.28668 37021 ft 452 kts 150°
2026-05-06 18:34 40.69058 14.33440 37030 ft 452 kts 150°
2026-05-06 18:34 40.63914 14.38200 37019 ft 451 kts 150°
2026-05-06 18:35 40.58790 14.42934 37044 ft 449 kts 150°
2026-05-06 18:35 40.53668 14.47658 37034 ft 449 kts 150°
2026-05-06 18:36 40.48550 14.52368 37004 ft 449 kts 150°
2026-05-06 18:36 40.43432 14.57068 37002 ft 449 kts 150°
2026-05-06 18:37 40.38310 14.61764 37017 ft 449 kts 150°
2026-05-06 18:37 40.33216 14.66424 36648 ft 454 kts 150°
2026-05-06 18:38 40.30626 14.68791 36171 ft 452 kts 150°
2026-05-06 18:38 40.28055 14.71140 35617 ft 450 kts 150°
2026-05-06 18:38 40.25488 14.73484 35093 ft 448 kts 150°
2026-05-06 18:38 40.22949 14.75801 34699 ft 443 kts 150°
2026-05-06 18:39 40.20434 14.78091 34274 ft 439 kts 150°
2026-05-06 18:39 40.17941 14.80360 33840 ft 435 kts 150°
2026-05-06 18:39 40.15469 14.82606 33370 ft 430 kts 150°
2026-05-06 18:40 40.10823 14.87465 32586 ft 425 kts 144°
2026-05-06 18:40 40.08613 14.90018 32165 ft 422 kts 143°
2026-05-06 18:40 40.06427 14.92560 31751 ft 419 kts 144°
2026-05-06 18:40 40.04252 14.95075 31335 ft 417 kts 144°
2026-05-06 18:41 40.02084 14.97558 30950 ft 414 kts 144°
2026-05-06 18:41 39.99916 15.00024 30553 ft 412 kts 145°
2026-05-06 18:41 39.97759 15.02464 30156 ft 410 kts 145°
2026-05-06 18:41 39.95608 15.04889 29728 ft 408 kts 145°
2026-05-06 18:42 39.93470 15.07296 29286 ft 405 kts 145°
2026-05-06 18:42 39.91343 15.09689 28860 ft 402 kts 144°
2026-05-06 18:42 39.89234 15.12059 28474 ft 399 kts 144°
2026-05-06 18:42 39.87138 15.14414 28060 ft 397 kts 145°
2026-05-06 18:43 39.85055 15.16752 27659 ft 394 kts 145°
2026-05-06 18:43 39.82986 15.19073 27265 ft 392 kts 145°
2026-05-06 18:43 39.80929 15.21378 26874 ft 390 kts 145°
2026-05-06 18:43 39.78880 15.23672 26505 ft 388 kts 145°
2026-05-06 18:44 39.76841 15.25953 26117 ft 386 kts 145°
2026-05-06 18:44 39.74812 15.28223 25732 ft 384 kts 145°
2026-05-06 18:44 39.72789 15.30482 25336 ft 383 kts 145°
2026-05-06 18:44 39.70771 15.32733 24948 ft 381 kts 145°
2026-05-06 18:45 39.68764 15.34972 24568 ft 380 kts 145°
2026-05-06 18:45 39.66758 15.37208 24189 ft 380 kts 145°
2026-05-06 18:45 39.64756 15.39438 23803 ft 379 kts 145°
2026-05-06 18:45 39.62756 15.41665 23370 ft 379 kts 145°
2026-05-06 18:46 39.60759 15.43886 22943 ft 377 kts 145°
2026-05-06 18:46 39.58773 15.46095 22540 ft 375 kts 145°
2026-05-06 18:46 39.56799 15.48289 22152 ft 373 kts 145°
2026-05-06 18:46 39.54836 15.50470 21781 ft 371 kts 145°
2026-05-06 18:47 39.52883 15.52636 21402 ft 368 kts 145°
2026-05-06 18:47 39.50944 15.54786 21028 ft 366 kts 145°
2026-05-06 18:47 39.49014 15.56923 20657 ft 364 kts 145°
2026-05-06 18:47 39.47091 15.59052 20287 ft 362 kts 145°
2026-05-06 18:48 39.45181 15.61164 19921 ft 361 kts 145°
2026-05-06 18:48 39.43302 15.63241 19558 ft 359 kts 145°
2026-05-06 18:48 39.41384 15.65359 19190 ft 358 kts 144°
2026-05-06 18:48 39.39519 15.67417 18825 ft 356 kts 144°
2026-05-06 18:49 39.37639 15.69490 18466 ft 355 kts 144°
2026-05-06 18:49 39.35762 15.71558 18067 ft 354 kts 144°
2026-05-06 18:49 39.33895 15.73615 17662 ft 352 kts 144°
2026-05-06 18:49 39.32035 15.75661 17279 ft 350 kts 144°
2026-05-06 18:50 39.30189 15.77691 16905 ft 348 kts 144°
2026-05-06 18:50 39.28547 15.79991 16531 ft 354 kts 127°
2026-05-06 18:50 39.27542 15.82909 16188 ft 360 kts 108°
2026-05-06 18:50 39.27094 15.86088 15851 ft 359 kts 102°
2026-05-06 18:51 39.26746 15.89276 15481 ft 358 kts 101°
2026-05-06 18:51 39.26419 15.92455 15119 ft 357 kts 101°
2026-05-06 18:51 39.26092 15.95618 14781 ft 355 kts 102°
2026-05-06 18:51 39.25760 15.98764 14424 ft 353 kts 102°
2026-05-06 18:52 39.25420 16.01900 14052 ft 352 kts 102°
2026-05-06 18:52 39.25076 16.05018 13677 ft 350 kts 102°
2026-05-06 18:52 39.24729 16.08120 13319 ft 349 kts 102°
2026-05-06 18:52 39.24381 16.11209 12940 ft 348 kts 102°
2026-05-06 18:53 39.24031 16.14287 12555 ft 346 kts 102°
2026-05-06 18:53 39.23683 16.17346 12198 ft 343 kts 101°
2026-05-06 18:53 39.23337 16.20375 11838 ft 340 kts 101°
2026-05-06 18:53 39.22994 16.23381 11503 ft 338 kts 101°
2026-05-06 18:54 39.22651 16.26369 11150 ft 335 kts 101°
2026-05-06 18:54 39.22310 16.29333 10805 ft 333 kts 101°
2026-05-06 18:54 39.21970 16.32276 10456 ft 331 kts 101°
2026-05-06 18:54 39.21634 16.35188 10255 ft 324 kts 101°
2026-05-06 18:55 39.21312 16.37992 10101 ft 317 kts 101°
2026-05-06 18:55 39.20993 16.40751 10062 ft 302 kts 101°
2026-05-06 18:55 39.20682 16.43421 9523 ft 302 kts 101°
2026-05-06 18:55 39.20373 16.46061 9147 ft 295 kts 101°
2026-05-06 18:56 39.20072 16.48636 8845 ft 287 kts 101°
2026-05-06 18:56 39.19778 16.51150 8545 ft 280 kts 101°
2026-05-06 18:56 39.19489 16.53607 8246 ft 274 kts 101°
2026-05-06 18:56 39.19204 16.56029 7984 ft 274 kts 101°
2026-05-06 18:57 39.18917 16.58452 7690 ft 275 kts 101°
2026-05-06 18:57 39.18628 16.60892 7412 ft 276 kts 101°
2026-05-06 18:57 39.18337 16.63344 7119 ft 277 kts 101°
2026-05-06 18:57 39.18046 16.65807 6812 ft 279 kts 101°
2026-05-06 18:58 39.17753 16.68277 6505 ft 280 kts 101°
2026-05-06 18:58 39.17456 16.70761 6188 ft 280 kts 100°
2026-05-06 18:58 39.17161 16.73247 5873 ft 281 kts 101°
2026-05-06 18:58 39.16865 16.75737 5559 ft 282 kts 101°
2026-05-06 18:59 39.16568 16.78228 5241 ft 281 kts 101°
2026-05-06 18:59 39.16271 16.80712 4929 ft 279 kts 101°
2026-05-06 18:59 39.15978 16.83160 4722 ft 272 kts 101°
2026-05-06 18:59 39.15696 16.85517 4587 ft 262 kts 101°
2026-05-06 19:00 39.15421 16.87806 4401 ft 253 kts 101°
2026-05-06 19:00 39.15160 16.89994 4265 ft 244 kts 101°
2026-05-06 19:00 39.14900 16.92133 4021 ft 239 kts 102°
2026-05-06 19:00 39.14649 16.94212 3814 ft 229 kts 102°
2026-05-06 19:01 39.14413 16.96173 3633 ft 218 kts 102°
2026-05-06 19:01 39.14183 16.98069 3361 ft 211 kts 102°
2026-05-06 19:01 39.13960 16.99907 3089 ft 204 kts 103°
2026-05-06 19:01 39.13744 17.01680 2860 ft 197 kts 102°
2026-05-06 19:02 39.13489 17.03380 2609 ft 188 kts 115°
2026-05-06 19:02 39.12668 17.04532 2329 ft 172 kts 162°
2026-05-06 19:02 39.11542 17.04923 2100 ft 167 kts 168°
2026-05-06 19:02 39.10438 17.05274 2042 ft 163 kts 171°
2026-05-06 19:03 39.09352 17.05575 2010 ft 151 kts 173°
2026-05-06 19:03 39.08346 17.05837 2009 ft 149 kts 173°
2026-05-06 19:03 39.07331 17.06095 1924 ft 150 kts 173°
2026-05-06 19:03 39.06315 17.06353 1753 ft 148 kts 174°
2026-05-06 19:04 39.05321 17.06603 1521 ft 140 kts 173°
2026-05-06 19:04 39.04377 17.06840 1378 ft 141 kts 173°
2026-05-06 19:04 39.03417 17.07083 1192 ft 139 kts 172°
2026-05-06 19:04 39.02471 17.07322 962 ft 137 kts 172°
2026-05-06 19:05 39.01546 17.07571 808 ft 139 kts 171°
2026-05-06 19:05 39.00574 17.07806 595 ft 144 kts 170°
2026-05-06 19:05 38.99648 17.08043 524 ft 102 kts 169°
2026-05-06 19:05 38.99312 17.08098 526 ft 13 kts 232°
2026-05-06 19:06 38.99338 17.08014 525 ft 7 kts 309°
2026-05-06 19:06 38.99368 17.07977 525 ft 5 kts 315°
2026-05-06 19:06 38.99394 17.07944 525 ft 5 kts 315°
2026-05-06 19:06 38.99419 17.07904 526 ft 9 kts 304°
2026-05-06 19:07 38.99477 17.07860 526 ft 11 kts 348°
2026-05-06 19:07 38.99506 17.07852 526 ft 4 kts 346°
2026-05-06 19:07 38.99515 17.07835 526 ft 1 kts 276°
2026-05-06 19:07 38.99517 17.07805 526 ft 3 kts 283°
2026-05-06 19:08 38.99516 17.07799 526 ft 0 kts 262°
2026-05-06 19:08 38.99518 17.07796 527 ft 1 kts 292°
2026-05-06 19:09 38.99522 17.07788 527 ft 0 kts 300°